Location: Street
(51.1247°N, 2.7429°W)
Time: 17:15:30
(UTC+00:00)

deb Explorer IX - All Passes

Search period start: 04 December 2020 00:00
Search period end: 14 December 2020 00:00
Orbit: 537 x 1105 km, 38.8° (Epoch: 03 December)

Date Brightness Start Highest point End Pass type
(mag) Time Alt. Az. Time Alt. Az. Time Alt. Az.
04 Dec - 14:31:35 10° SSW 14:36:14 19° SSE 14:40:31 10° ESE daylight
04 Dec - 16:17:05 10° SW 16:22:19 25° S 16:27:01 10° SE daylight
04 Dec - 18:04:03 10° WSW 18:08:17 20° SSW 18:12:07 10° SSE visible
05 Dec - 14:07:59 10° SSW 14:12:48 20° SSE 14:17:17 10° ESE daylight
05 Dec - 15:53:30 10° SW 15:58:56 26° S 16:03:48 10° SE daylight
05 Dec - 17:40:28 10° WSW 17:44:56 21° SSW 17:48:58 10° SSE visible
06 Dec - 13:44:23 10° SSW 13:49:22 21° SSE 13:54:02 10° ESE daylight
06 Dec - 15:29:55 10° SW 15:35:31 27° S 15:40:35 10° ESE daylight
06 Dec - 17:16:53 10° WSW 17:21:33 21° SSW 17:25:47 10° SSE visible
07 Dec - 13:20:48 10° SSW 13:25:54 21° SSE 13:30:44 10° ESE daylight
07 Dec - 15:06:20 10° SW 15:12:05 28° S 15:17:19 10° ESE daylight
07 Dec - 16:53:17 10° WSW 16:58:10 22° SSW 17:02:35 10° SSE visible
08 Dec - 12:57:14 10° SSW 13:02:27 21° SSE 13:07:24 10° ESE daylight
08 Dec - 14:42:46 10° SW 14:48:38 28° S 14:54:03 10° ESE daylight
08 Dec - 16:29:41 10° WSW 16:34:45 23° SSW 16:39:22 10° SSE daylight
09 Dec - 12:33:41 10° SSW 12:38:58 22° SSE 12:44:04 10° ESE daylight
09 Dec - 14:19:11 10° SW 14:25:11 29° S 14:30:44 10° ESE daylight
09 Dec - 16:06:05 10° WSW 16:11:19 23° SSW 16:16:07 10° SSE daylight
09 Dec - 17:56:17 10° SW 17:56:55 10° SW 17:57:32 10° SSW visible
10 Dec - 12:10:09 10° SSW 12:15:29 22° SSE 12:20:40 10° ESE daylight
10 Dec - 13:55:38 10° SW 14:01:42 29° S 14:07:24 10° ESE daylight
10 Dec - 15:42:30 10° WSW 15:47:53 24° SSW 15:52:50 10° SSE daylight
10 Dec - 17:32:09 10° SW 17:33:30 11° SW 17:34:50 10° SSW visible
11 Dec - 11:46:37 10° SSW 11:51:59 22° SSE 11:57:15 10° ESE daylight
11 Dec - 13:32:05 10° SW 13:38:13 30° S 13:44:02 10° ESE daylight
11 Dec - 15:18:54 10° WSW 15:24:25 24° SSW 15:29:32 10° SE daylight
11 Dec - 17:08:16 10° SW 17:10:05 11° SW 17:11:50 10° SSW visible
12 Dec - 11:23:07 10° SSW 11:28:29 22° SSE 11:33:49 10° ESE daylight
12 Dec - 13:08:32 10° SW 13:14:43 30° S 13:20:38 10° ESE daylight
12 Dec - 14:55:20 10° WSW 15:00:56 25° SSW 15:06:12 10° SE daylight
12 Dec - 16:44:30 10° SW 16:46:39 12° SW 16:48:43 10° SSW visible
13 Dec - 10:59:38 10° SSW 11:04:58 22° SSE 11:10:21 10° ESE daylight
13 Dec - 12:45:01 10° SW 12:51:12 30° S 12:57:14 10° ESE daylight
13 Dec - 14:31:46 10° WSW 14:37:27 25° SSW 14:42:51 10° SE daylight
13 Dec - 16:20:46 10° SW 16:23:11 12° SW 16:25:32 10° SSW daylight
